Flag for Switzerland Weather past 2 weeks in Liestal, Basel-Land, Switzerland

Now
45 °F

Clear.


Feels Like: 45 °F
Forecast: 43 / 71 °F
Wind: No wind

Location: Bale-Mulhouse

Current Time: May 23, 2015 at 5:26:10 AM

Latest Report: May 23, 2015 at 5:00 AM


Visibility: 10 mi

Pressure: 30.09 "Hg

Humidity: 93%

Dew point: 43 °F

Location of LiestalLocation

Historic Weather in Liestal — Graph

°F

Liestal temperature yesterday

Maximum temperature yesterday: 66 °F (at 3:30 PM)
Minimum temperature yesterday: 39 °F (at 5:00 AM)
Average temperature yesterday: 53 °F

Past Weeks' High & Low Weather Summary

 TemperatureHumidityPressure
High88 °F (May 12, 4:00 PM)100% (May 8, 4:30 AM)30.36 "Hg (May 8, 4:30 AM)
Low39 °F (May 22, 5:00 AM)24% (May 12, 4:00 PM)29.77 "Hg (May 18, 6:30 PM)
Average60 °F69%30.10 "Hg
* Reported May 8 4:00 AM — May 23 4:00 AM, Liestal, Weather by CustomWeather, © 2015

Note: Actual official high and low records may vary slightly from our data, if they occured in-between our weather recording intervals... More about our weather records

Advertising

Liestal weather history for previous 24 hours

 ConditionsComfort  
Time TempWeatherWind HumidityBarometerVisibility
4:00 AM
Sat, May 23
46 °FClear.2 mph93%30.09 "Hg10 mi
3:30 AM45 °FClear.2 mph93%30.12 "Hg10 mi
3:00 AM45 °FClear.1 mph87%30.12 "Hg10 mi
2:30 AM46 °FClear.No wind93%30.12 "Hg10 mi
2:00 AM46 °FClear.No wind87%30.12 "Hg10 mi
1:30 AM48 °FClear.2 mph87%30.12 "Hg10 mi
1:00 AM48 °FClear.1 mph87%30.15 "Hg10 mi
12:30 AM48 °FPassing clouds.5 mph87%30.15 "HgN/A
12:00 AM50 °FClear.3 mph82%30.15 "Hg10 mi
11:30 PM
Fri, May 22
48 °FClear.No wind82%30.15 "Hg10 mi
11:00 PM50 °FClear.No wind82%30.15 "Hg10 mi
10:30 PM52 °FClear.No wind77%30.15 "Hg10 mi
10:00 PM54 °FSunny.3 mph72%30.15 "Hg10 mi
9:30 PM59 °FSunny.3 mph55%30.15 "Hg10 mi
9:00 PM61 °FSunny.2 mph52%30.15 "Hg10 mi
8:30 PM61 °FPassing clouds.6 mph48%30.15 "HgN/A
8:00 PM61 °FPassing clouds.6 mph48%30.15 "HgN/A
7:30 PM63 °FPassing clouds.3 mph42%30.15 "HgN/A
7:00 PM63 °FPassing clouds.3 mph49%30.15 "HgN/A
6:30 PM63 °FPassing clouds.7 mph45%30.15 "HgN/A
6:00 PM63 °FPassing clouds.6 mph45%30.15 "HgN/A
5:30 PM63 °FPassing clouds.7 mph45%30.15 "HgN/A
5:00 PM63 °FPassing clouds.6 mph42%30.15 "HgN/A
4:30 PM64 °FPassing clouds.7 mph34%30.15 "HgN/A
4:00 PM66 °FPassing clouds.8 mph35%30.18 "HgN/A
3:30 PM66 °FPassing clouds.10 mph37%30.18 "HgN/A
3:00 PM64 °FPassing clouds.9 mph37%30.18 "HgN/A
2:30 PM64 °FPassing clouds.9 mph40%30.21 "HgN/A
2:00 PM64 °FScattered clouds.9 mph43%30.21 "HgN/A
1:30 PM64 °FScattered clouds.9 mph43%30.21 "HgN/A
1:00 PM63 °FScattered clouds.9 mph42%30.24 "HgN/A
12:30 PM63 °FPassing clouds.7 mph42%30.24 "HgN/A
12:00 PM61 °FPassing clouds.8 mph48%30.24 "HgN/A
11:30 AM59 °FPassing clouds.7 mph51%30.27 "HgN/A
11:00 AM57 °FPassing clouds.6 mph55%30.27 "HgN/A
10:30 AM55 °FPassing clouds.6 mph59%30.27 "HgN/A
10:00 AM54 °FPassing clouds.5 mph67%30.27 "HgN/A
9:30 AM50 °FPassing clouds.3 mph82%30.30 "HgN/A
9:00 AM48 °FPassing clouds.No wind87%30.30 "HgN/A
8:30 AM46 °FFog.1 mph93%30.30 "HgN/A
8:00 AM43 °FFog.No wind100%30.30 "Hg5 mi
7:30 AM43 °FQuite cool.1 mph100%30.30 "Hg4 mi
7:00 AM43 °FQuite cool.2 mph93%30.30 "Hg3 mi
6:30 AM41 °FSleet. Overcast.2 mph100%30.30 "Hg3 mi
6:00 AM41 °FSleet. Fog.2 mph93%30.30 "Hg3 mi
5:30 AM39 °FChilly.3 mph100%30.30 "Hg2 mi
5:00 AM39 °FFog.2 mph93%30.30 "Hg2 mi
Weather by CustomWeather, © 2015

See weather overviewHow to use our weather pages